Address 0x9cf260e301ebd490ae0c4a8f0c87678d8b8a1761 14

Txn Hash Method
Block
From
To
Value [Txn Fee]
0xc0028ee5f9cc31424de8ce604612105d3e257b815d8217f7ee35013a771e76800x6549920d138339752022-09-23 8:31:064 days 28 mins ago0x9cf260e301ebd490ae0c4a8f0c87678d8b8a1761OUT0x2e1d0c56c6913fd6135f887080f7a14123a142a80 AVAX0.0172195375 27.5
0xb12c4f4d5322930f5ba8778e2849319b58bc4b5039ffd65954c1f8327e32aa4dMint138339522022-09-23 8:30:204 days 29 mins ago0x9cf260e301ebd490ae0c4a8f0c87678d8b8a1761OUT0x0faf4bf0bf669cad5a3ce24839abc9d143d0cb7e0 AVAX0.001613645 27.5
0x4d3a606c76841d9f2b5c505bad4a63024816df4819a780756e93aff662cf2a570x6549920d138339192022-09-23 8:29:144 days 30 mins ago0x9cf260e301ebd490ae0c4a8f0c87678d8b8a1761OUT0x2e1d0c56c6913fd6135f887080f7a14123a142a80 AVAX0.0172195375 27.5
0x559c06f727edc5ad3e6dff7e4c2cf535a53c3433855036dbe2fb1201b5be9031Mint138338932022-09-23 8:28:224 days 31 mins ago0x9cf260e301ebd490ae0c4a8f0c87678d8b8a1761OUT0x85e09719085a65be7ccb86a939418474d5c351d30 AVAX0.001613645 27.5
0xbecbd0cf2b6ff5ebf2c9fe3977d5984c5a25470f3c9c45e0b88a33d89d11f7e80x6549920d138338502022-09-23 8:26:554 days 32 mins ago0x9cf260e301ebd490ae0c4a8f0c87678d8b8a1761OUT0x2e1d0c56c6913fd6135f887080f7a14123a142a80 AVAX0.0162790375 27.5
0x37011b1e6019f448607eacc821ceb41488917008dd8f8582e99a12153d0aea3f0x6549920d138338432022-09-23 8:26:424 days 33 mins ago0x9cf260e301ebd490ae0c4a8f0c87678d8b8a1761OUT0x2e1d0c56c6913fd6135f887080f7a14123a142a80 AVAX0.0172195375 27.5
0xd1966429dc1b4bea8f63def8fad88d4f1ddd2164a9dc5ebf913d39b92882189cApprove138338332022-09-23 8:26:214 days 33 mins ago0x9cf260e301ebd490ae0c4a8f0c87678d8b8a1761OUT0x5462894dee859029c2939e74485865da2148f63c0 AVAX0.0007268525 27.5
0x97275ee45e0a6e7c44d8ff1ceb627d1d97fe90504cfebcd3d1fc7405ce049540Approve138338282022-09-23 8:26:124 days 33 mins ago0x9cf260e301ebd490ae0c4a8f0c87678d8b8a1761OUT0x5462894dee859029c2939e74485865da2148f63c0 AVAX0.0012741025 27.5
0x0fb656d080b6f2aa60aec56b555948ec879e7a194a103de4d877623270abae75Mint138337902022-09-23 8:24:564 days 34 mins ago0x9cf260e301ebd490ae0c4a8f0c87678d8b8a1761OUT0x5462894dee859029c2939e74485865da2148f63c0 AVAX0.002083895 27.5
0xec904cbe6987033cb4b1b6a6edacb24001ac49c909fb10975ab27bcf434a100e0x6549920d138337522022-09-23 8:23:404 days 36 mins ago0x9cf260e301ebd490ae0c4a8f0c87678d8b8a1761OUT0x2e1d0c56c6913fd6135f887080f7a14123a142a80 AVAX0.0167492875 27.5
0xe7198a1b6893ff635c8cdc4a67ab6dd3a52a4f35535f102a2874b62755425a050x6549920d138337092022-09-23 8:22:144 days 37 mins ago0x9cf260e301ebd490ae0c4a8f0c87678d8b8a1761OUT0x2e1d0c56c6913fd6135f887080f7a14123a142a80 AVAX0.01755171 27.5
0x66196b33e38e8297ad26a148dd7cbc6bf6b717732a65104087315b95599ecd5b0xd9dc8f1d138329322022-09-23 7:56:204 days 1 hr ago0x9cf260e301ebd490ae0c4a8f0c87678d8b8a1761OUT0x41102fb90121896e52868c0882dcbc74f9ca76060 AVAX0.0024598475 27.5
0xe0bf974c87dc03faace5dd9b17106da1394e045b14a1042baa5cec72dc9f939eApprove138329132022-09-23 7:55:424 days 1 hr ago0x9cf260e301ebd490ae0c4a8f0c87678d8b8a1761OUT0x9d57fc5c87196ca242815b1132d15e4ac05181880 AVAX0.0012741025 27.5
0x3c3c018bcc31c12780d1d81efa8cb8d325121a59b0e062410d32f4ba2f4e4a1e0xab07211e137987062022-09-22 12:50:164 days 20 hrs ago0x9cf260e301ebd490ae0c4a8f0c87678d8b8a1761OUT0x2e1d0c56c6913fd6135f887080f7a14123a142a80 AVAX0.0062121125 27.5
0x131064b5c132a6a0c142ac9e52eacdf96a2f80c244cb3da49d3e4f6037c2573fHarvest137986792022-09-22 12:49:224 days 20 hrs ago0x9cf260e301ebd490ae0c4a8f0c87678d8b8a1761OUT0x951accccfdf619d3cd8cfe0e4823d8e80354eb410 AVAX0.0027231325 27.5
0x0ec582774b2899d15132f544899945eb7e8270493bf1880da310adeb7892326d0xab07211e137986602022-09-22 12:48:444 days 20 hrs ago0x9cf260e301ebd490ae0c4a8f0c87678d8b8a1761OUT0x2e1d0c56c6913fd6135f887080f7a14123a142a80 AVAX0.0062121125 27.5
0x8521fe238d843fb3ce28c321e7ca0a9a0455f97c730b199f42464fc1459bd037Harvest137986352022-09-22 12:47:544 days 20 hrs ago0x9cf260e301ebd490ae0c4a8f0c87678d8b8a1761OUT0x951accccfdf619d3cd8cfe0e4823d8e80354eb410 AVAX0.0027231325 27.5
0x51f37df711a0b34995354864a2c0b860103e184ea5382e0ba8bfc41fe87906020xab07211e137986132022-09-22 12:47:104 days 20 hrs ago0x9cf260e301ebd490ae0c4a8f0c87678d8b8a1761OUT0x2e1d0c56c6913fd6135f887080f7a14123a142a80 AVAX0.0062784425 27.5
0xb8034991af6cfefe33a88fd37747cbdb8b3318aa9ca3d9d9529cd07f2815ef36Harvest137986022022-09-22 12:46:484 days 20 hrs ago0x9cf260e301ebd490ae0c4a8f0c87678d8b8a1761OUT0x951accccfdf619d3cd8cfe0e4823d8e80354eb410 AVAX0.0022528825 27.5
0x6c5386be927e599c81a45e732a82026adc761b24028ca167241db92c45a0e812Approve137985302022-09-22 12:44:244 days 20 hrs ago0x9cf260e301ebd490ae0c4a8f0c87678d8b8a1761OUT0x85e09719085a65be7ccb86a939418474d5c351d30 AVAX0.0012741025 27.5
0x44e84e1de3082f41ec176482dc8ab58993c37b02aecc05ffaf9753ebbbbdcdc6Approve137985122022-09-22 12:43:484 days 20 hrs ago0x9cf260e301ebd490ae0c4a8f0c87678d8b8a1761OUT0x0faf4bf0bf669cad5a3ce24839abc9d143d0cb7e0 AVAX0.0012741025 27.5
0xee22053d643cc1f724080b148bdbfe1795561959fa5448c9e6760123a3f5be95Harvest137984772022-09-22 12:42:384 days 20 hrs ago0x9cf260e301ebd490ae0c4a8f0c87678d8b8a1761OUT0x951accccfdf619d3cd8cfe0e4823d8e80354eb410 AVAX0.0022528825 27.5
0xe77a98b3359d1d1b43fe9f7fd252323e01890784f41695e05165fcf16fe9b4740x4ea4c6b3137984522022-09-22 12:41:484 days 20 hrs ago0x9cf260e301ebd490ae0c4a8f0c87678d8b8a1761OUT0x2e1d0c56c6913fd6135f887080f7a14123a142a80 AVAX0.007572455 27.5
0xd476866fcb16fdcdbb678dd4754a0e17fb37862cdd5ea5714f72bc92026de57f0x4ea4c6b3137984312022-09-22 12:41:064 days 20 hrs ago0x9cf260e301ebd490ae0c4a8f0c87678d8b8a1761OUT0x2e1d0c56c6913fd6135f887080f7a14123a142a80 AVAX0.007572455 27.5
0x5d0c7f68870a3c9de9343c1d90db12d2496a9ebcca54c3e2d3261bc721a295f10x6549920d137982912022-09-22 12:36:264 days 20 hrs ago0x9cf260e301ebd490ae0c4a8f0c87678d8b8a1761OUT0x2e1d0c56c6913fd6135f887080f7a14123a142a80 AVAX0.0172195375 27.5
[ Download CSV Export 
Parent Txn Hash Block From To Value
Loading

Contract Name:
0

Compiler Version
0

Optimization Enabled:
0

Other Settings:
-NA-
Block Transaction Gas Used Reward
Age Block Fee Address BC Fee Address Voting Power Jailed Incoming
Block Uncle Number Difficulty Gas Used Reward
Loading